RYR496E LEZL-GCFV

Flight info

Callsign RYR496E
Flight time N/A
Altitude 37000
Route CLANA N857 KORNO UN857 TERTO
Aircraft B738/M-SDE2E3FGHIRWXY/LB1

Departure

Time 2026-04-15 04:36
Airport Seville Airport (LEZL)

Arrival

Time N/A
Airport Fuerteventura Airport (GCFV)
Time Latitude Longitude Altitude Speed Heading
2026-04-15 03:47 37.42154 -5.90028 93 ft 0 kts 315°
2026-04-15 04:22 37.42147 -5.90019 93 ft 2 kts 315°
2026-04-15 04:23 37.42135 -5.90004 94 ft 2 kts 315°
2026-04-15 04:23 37.42124 -5.89990 93 ft 2 kts 318°
2026-04-15 04:23 37.42110 -5.89978 92 ft 2 kts 358°
2026-04-15 04:23 37.42100 -5.89981 91 ft 1 kts 45°
2026-04-15 04:24 37.42097 -5.89984 93 ft 0 kts 48°
2026-04-15 04:30 37.42098 -5.89982 93 ft 1 kts 58°
2026-04-15 04:30 37.42094 -5.89972 94 ft 2 kts 110°
2026-04-15 04:30 37.42084 -5.89943 92 ft 5 kts 118°
2026-04-15 04:30 37.42053 -5.89911 93 ft 7 kts 155°
2026-04-15 04:31 37.42008 -5.89884 94 ft 8 kts 147°
2026-04-15 04:31 37.41982 -5.89823 96 ft 9 kts 98°
2026-04-15 04:31 37.41981 -5.89724 96 ft 13 kts 90°
2026-04-15 04:31 37.41981 -5.89586 97 ft 18 kts 90°
2026-04-15 04:32 37.41983 -5.89406 98 ft 23 kts 89°
2026-04-15 04:32 37.41984 -5.89192 99 ft 26 kts 90°
2026-04-15 04:32 37.41984 -5.88963 100 ft 25 kts 90°
2026-04-15 04:32 37.41984 -5.88749 102 ft 24 kts 90°
2026-04-15 04:33 37.41985 -5.88548 103 ft 23 kts 89°
2026-04-15 04:33 37.41986 -5.88356 104 ft 22 kts 90°
2026-04-15 04:33 37.41986 -5.88164 105 ft 22 kts 90°
2026-04-15 04:33 37.41987 -5.87976 106 ft 22 kts 89°
2026-04-15 04:34 37.41988 -5.87784 107 ft 22 kts 90°
2026-04-15 04:34 37.41988 -5.87599 108 ft 16 kts 89°
2026-04-15 04:34 37.41966 -5.87488 109 ft 15 kts 121°
2026-04-15 04:34 37.41881 -5.87430 114 ft 14 kts 187°
2026-04-15 04:35 37.41801 -5.87466 117 ft 9 kts 247°
2026-04-15 04:35 37.41800 -5.87497 116 ft 0 kts 269°
2026-04-15 04:35 37.41799 -5.87638 113 ft 51 kts 270°
2026-04-15 04:36 37.41798 -5.88415 106 ft 124 kts 270°
2026-04-15 04:36 37.41797 -5.89751 174 ft 175 kts 270°
2026-04-15 04:36 37.41790 -5.91385 682 ft 198 kts 270°
2026-04-15 04:36 37.41953 -5.93134 1368 ft 198 kts 296°
2026-04-15 04:37 37.42598 -5.94548 2554 ft 180 kts 301°
2026-04-15 04:37 37.43241 -5.95912 3376 ft 186 kts 304°
2026-04-15 04:37 37.43875 -5.97407 3988 ft 200 kts 297°
2026-04-15 04:37 37.44328 -5.99082 4665 ft 203 kts 281°
2026-04-15 04:38 37.44473 -6.00804 5557 ft 196 kts 278°
2026-04-15 04:38 37.44606 -6.02584 5974 ft 215 kts 278°
2026-04-15 04:38 37.44763 -6.04574 6137 ft 240 kts 278°
2026-04-15 04:38 37.44957 -6.06673 6841 ft 236 kts 280°
2026-04-15 04:39 37.45016 -6.08704 7561 ft 238 kts 261°
2026-04-15 04:39 37.44293 -6.10636 7939 ft 258 kts 231°
2026-04-15 04:39 37.42793 -6.12032 8197 ft 285 kts 203°
2026-04-15 04:39 37.40803 -6.12473 8780 ft 296 kts 181°
2026-04-15 04:40 37.38697 -6.12401 9026 ft 307 kts 178°
2026-04-15 04:40 37.36576 -6.12254 9093 ft 304 kts 177°
2026-04-15 04:40 37.34479 -6.12094 9130 ft 301 kts 177°
2026-04-15 04:40 37.32395 -6.11929 9177 ft 300 kts 177°
2026-04-15 04:41 37.30301 -6.11760 9193 ft 302 kts 176°
2026-04-15 04:41 37.28200 -6.11590 9197 ft 303 kts 176°
2026-04-15 04:41 37.26101 -6.11419 9197 ft 302 kts 176°
2026-04-15 04:41 37.24712 -6.11306 9196 ft 302 kts 176°
2026-04-15 04:42 37.22615 -6.11136 9195 ft 302 kts 176°
2026-04-15 04:42 37.20490 -6.10962 9199 ft 302 kts 176°
2026-04-15 04:42 37.18443 -6.10594 9201 ft 301 kts 174°
2026-04-15 04:42 37.16397 -6.10923 9204 ft 297 kts 205°
2026-04-15 04:43 37.14558 -6.12096 9504 ft 299 kts 210°
2026-04-15 04:43 37.12676 -6.13275 10227 ft 304 kts 207°
2026-04-15 04:43 37.10704 -6.14361 10681 ft 320 kts 205°
2026-04-15 04:43 37.08549 -6.15420 10851 ft 345 kts 202°
2026-04-15 04:44 37.06242 -6.16483 11218 ft 360 kts 202°
2026-04-15 04:44 37.03875 -6.17596 11833 ft 365 kts 206°
2026-04-15 04:44 37.01655 -6.19149 12517 ft 367 kts 218°
2026-04-15 04:44 36.99662 -6.21149 13097 ft 370 kts 223°
2026-04-15 04:45 36.97702 -6.23246 13191 ft 370 kts 224°
2026-04-15 04:45 36.95759 -6.25354 13205 ft 371 kts 224°
2026-04-15 04:45 36.93807 -6.27466 13207 ft 371 kts 224°
2026-04-15 04:45 36.91854 -6.29566 13204 ft 370 kts 224°
2026-04-15 04:46 36.89898 -6.31656 13204 ft 370 kts 224°
2026-04-15 04:46 36.85971 -6.35826 13213 ft 370 kts 223°
2026-04-15 04:46 36.84006 -6.37905 13210 ft 370 kts 223°
2026-04-15 04:47 36.82035 -6.39988 13254 ft 375 kts 223°
2026-04-15 04:47 36.80030 -6.42107 13914 ft 379 kts 223°
2026-04-15 04:47 36.78010 -6.44237 14672 ft 381 kts 223°
2026-04-15 04:47 36.75980 -6.46376 15416 ft 384 kts 223°
2026-04-15 04:48 36.73928 -6.48538 16127 ft 388 kts 223°
2026-04-15 04:48 36.71860 -6.50713 16813 ft 392 kts 223°
2026-04-15 04:48 36.69766 -6.52916 17501 ft 396 kts 223°
2026-04-15 04:48 36.67648 -6.55142 18168 ft 400 kts 223°
2026-04-15 04:49 36.65508 -6.57390 18793 ft 404 kts 223°
2026-04-15 04:49 36.63347 -6.59656 19375 ft 408 kts 223°
2026-04-15 04:49 36.61197 -6.61911 19957 ft 412 kts 223°
2026-04-15 04:49 36.58997 -6.64216 20526 ft 416 kts 223°
2026-04-15 04:50 36.56771 -6.66547 21063 ft 420 kts 224°
2026-04-15 04:50 36.54526 -6.68896 21614 ft 424 kts 224°
2026-04-15 04:50 36.52263 -6.71262 22148 ft 427 kts 224°
2026-04-15 04:50 36.49974 -6.73650 22674 ft 432 kts 224°
2026-04-15 04:51 36.47656 -6.76049 23191 ft 436 kts 224°
2026-04-15 04:51 36.45315 -6.78461 23707 ft 439 kts 224°
2026-04-15 04:51 36.42949 -6.80894 24137 ft 443 kts 224°
2026-04-15 04:51 36.40566 -6.83342 24549 ft 446 kts 224°
2026-04-15 04:52 36.38168 -6.85806 24971 ft 450 kts 224°
2026-04-15 04:52 36.35747 -6.88292 25391 ft 453 kts 224°
2026-04-15 04:52 36.33316 -6.90788 25815 ft 455 kts 224°
2026-04-15 04:52 36.30867 -6.93300 26206 ft 459 kts 224°
2026-04-15 04:53 36.28398 -6.95832 26598 ft 462 kts 224°
2026-04-15 04:53 36.25914 -6.98377 26991 ft 465 kts 224°
2026-04-15 04:53 36.23417 -7.00933 27383 ft 467 kts 224°
2026-04-15 04:53 36.20901 -7.03506 27745 ft 471 kts 224°
2026-04-15 04:54 36.18368 -7.06094 28099 ft 474 kts 224°
2026-04-15 04:54 36.15852 -7.08663 28467 ft 476 kts 224°
2026-04-15 04:54 36.13292 -7.11274 28844 ft 479 kts 224°
2026-04-15 04:54 36.10680 -7.13936 29171 ft 482 kts 224°
2026-04-15 04:55 36.08089 -7.16575 29512 ft 484 kts 224°
2026-04-15 04:55 36.05480 -7.19228 29854 ft 487 kts 224°
2026-04-15 04:55 36.02861 -7.21890 30184 ft 489 kts 225°
2026-04-15 04:55 36.00260 -7.24531 30444 ft 492 kts 225°
2026-04-15 04:56 35.97575 -7.27256 30712 ft 494 kts 224°
2026-04-15 04:56 35.94918 -7.29949 31030 ft 494 kts 225°
2026-04-15 04:56 35.92263 -7.32637 31428 ft 493 kts 225°
2026-04-15 04:56 35.89616 -7.35314 31829 ft 491 kts 225°
2026-04-15 04:57 35.87009 -7.37950 32197 ft 491 kts 225°
2026-04-15 04:57 35.84372 -7.40615 32557 ft 490 kts 225°
2026-04-15 04:57 35.81739 -7.43269 32917 ft 489 kts 225°
2026-04-15 04:57 35.79093 -7.45916 33256 ft 489 kts 225°
2026-04-15 04:58 35.76449 -7.48551 33596 ft 489 kts 225°
2026-04-15 04:58 35.73773 -7.51214 33983 ft 487 kts 225°
2026-04-15 04:58 35.71174 -7.53798 34336 ft 486 kts 225°
2026-04-15 04:58 35.68509 -7.56450 34581 ft 487 kts 225°
2026-04-15 04:59 35.65905 -7.59041 34811 ft 488 kts 225°
2026-04-15 04:59 35.63270 -7.61661 35092 ft 487 kts 225°
2026-04-15 04:59 35.60634 -7.64279 35394 ft 486 kts 225°
2026-04-15 04:59 35.58006 -7.66888 35632 ft 487 kts 225°
2026-04-15 05:00 35.55370 -7.69503 35857 ft 487 kts 225°
2026-04-15 05:00 35.52733 -7.72116 36122 ft 487 kts 225°
2026-04-15 05:00 35.50097 -7.74725 36410 ft 486 kts 225°
2026-04-15 05:00 35.47472 -7.77321 36686 ft 485 kts 225°
2026-04-15 05:01 35.44848 -7.79915 36944 ft 484 kts 225°
2026-04-15 05:01 35.42224 -7.82506 37191 ft 484 kts 225°
2026-04-15 05:01 35.36958 -7.87742 37219 ft 492 kts 225°
2026-04-15 05:02 35.31621 -7.93088 37225 ft 499 kts 225°
2026-04-15 05:02 35.26217 -7.98488 37215 ft 502 kts 225°
2026-04-15 05:03 35.20802 -8.03877 37208 ft 502 kts 224°
2026-04-15 05:03 35.15382 -8.09261 37210 ft 501 kts 224°
2026-04-15 05:04 35.09976 -8.14624 37210 ft 500 kts 224°
2026-04-15 05:04 35.04588 -8.19961 37212 ft 498 kts 224°
2026-04-15 05:05 34.99211 -8.25277 37213 ft 497 kts 224°
2026-04-15 05:05 34.93845 -8.30574 37213 ft 495 kts 224°
2026-04-15 05:06 34.88494 -8.35847 37214 ft 494 kts 224°
2026-04-15 05:06 34.83156 -8.41097 37224 ft 493 kts 224°
2026-04-15 05:07 34.77827 -8.46330 37216 ft 492 kts 224°
2026-04-15 05:07 34.72506 -8.51547 37224 ft 491 kts 224°
2026-04-15 05:08 34.67192 -8.56747 37217 ft 490 kts 223°
2026-04-15 05:08 34.61890 -8.61928 37214 ft 489 kts 223°
2026-04-15 05:09 34.56623 -8.67065 37214 ft 488 kts 223°
2026-04-15 05:09 34.51336 -8.72215 37219 ft 487 kts 223°
2026-04-15 05:10 34.46048 -8.77357 37215 ft 487 kts 223°
2026-04-15 05:10 34.40763 -8.82470 37220 ft 486 kts 223°
2026-04-15 05:11 34.35470 -8.87552 37219 ft 485 kts 223°
2026-04-15 05:11 34.30179 -8.92623 37218 ft 485 kts 222°
2026-04-15 05:12 34.24900 -8.97680 37217 ft 484 kts 222°
2026-04-15 05:12 34.19622 -9.02731 37217 ft 483 kts 222°
2026-04-15 05:13 34.14357 -9.07761 37220 ft 483 kts 222°
2026-04-15 05:13 34.09091 -9.12784 37217 ft 482 kts 222°
2026-04-15 05:14 34.03834 -9.17790 37216 ft 481 kts 222°
2026-04-15 05:14 33.98585 -9.22780 37217 ft 480 kts 222°
2026-04-15 05:15 33.93343 -9.27755 37215 ft 479 kts 222°
2026-04-15 05:15 33.88143 -9.32683 37217 ft 478 kts 221°
2026-04-15 05:16 33.82912 -9.37632 37211 ft 478 kts 221°
2026-04-15 05:16 33.77655 -9.42598 37211 ft 477 kts 221°
2026-04-15 05:17 33.72476 -9.47482 37208 ft 476 kts 221°
2026-04-15 05:17 33.67266 -9.52387 37216 ft 475 kts 221°
2026-04-15 05:18 33.62065 -9.57277 37206 ft 475 kts 221°
2026-04-15 05:18 33.56869 -9.62154 37211 ft 474 kts 221°
2026-04-15 05:19 33.51685 -9.67013 37207 ft 473 kts 221°
2026-04-15 05:19 33.46504 -9.71861 37204 ft 472 kts 221°
2026-04-15 05:20 33.41329 -9.76695 37207 ft 471 kts 221°
2026-04-15 05:20 33.36162 -9.81516 37204 ft 471 kts 221°
2026-04-15 05:21 33.31002 -9.86322 37203 ft 470 kts 221°
2026-04-15 05:21 33.25931 -9.91034 37176 ft 446 kts 219°
2026-04-15 05:22 33.21126 -9.95495 37195 ft 435 kts 219°
2026-04-15 05:22 33.16332 -9.99944 37205 ft 437 kts 219°
2026-04-15 05:23 33.11518 -10.04404 37199 ft 439 kts 219°
2026-04-15 05:23 33.06687 -10.08872 37194 ft 440 kts 219°
2026-04-15 05:24 33.01847 -10.13342 37192 ft 441 kts 219°
2026-04-15 05:24 32.96995 -10.17808 37192 ft 441 kts 219°
2026-04-15 05:25 32.92137 -10.22270 37188 ft 441 kts 219°
2026-04-15 05:25 32.87278 -10.26729 37187 ft 441 kts 219°
2026-04-15 05:26 32.82421 -10.31181 37187 ft 441 kts 219°
2026-04-15 05:26 32.77564 -10.35628 37177 ft 441 kts 219°
2026-04-15 05:27 32.72706 -10.40068 37182 ft 440 kts 219°
2026-04-15 05:27 32.67855 -10.44497 37180 ft 440 kts 219°
2026-04-15 05:28 32.63004 -10.48919 37178 ft 439 kts 219°
2026-04-15 05:28 32.58156 -10.53332 37172 ft 439 kts 219°
2026-04-15 05:29 32.53341 -10.57709 37175 ft 439 kts 219°
2026-04-15 05:29 32.48497 -10.62106 37170 ft 439 kts 219°
2026-04-15 05:30 32.43654 -10.66496 37173 ft 438 kts 219°
2026-04-15 05:30 32.39594 -10.70172 37164 ft 438 kts 219°
2026-04-15 05:31 32.34755 -10.74548 37168 ft 438 kts 219°
2026-04-15 05:31 32.29913 -10.78920 37150 ft 438 kts 219°
2026-04-15 05:32 32.25069 -10.83288 37150 ft 438 kts 219°
2026-04-15 05:32 32.20258 -10.87621 37156 ft 438 kts 219°
2026-04-15 05:33 32.15414 -10.91976 37153 ft 438 kts 219°
2026-04-15 05:33 32.10568 -10.96328 37154 ft 437 kts 219°
2026-04-15 05:34 32.05726 -11.00670 37150 ft 437 kts 219°
2026-04-15 05:34 32.00884 -11.05007 37142 ft 437 kts 219°
2026-04-15 05:35 31.96041 -11.09339 37143 ft 437 kts 219°
2026-04-15 05:35 31.91201 -11.13662 37145 ft 437 kts 219°
2026-04-15 05:36 31.86345 -11.17994 37142 ft 437 kts 219°
2026-04-15 05:36 31.81506 -11.22306 37141 ft 436 kts 218°
2026-04-15 05:37 31.76667 -11.26612 37131 ft 436 kts 218°
2026-04-15 05:37 31.71828 -11.30918 37142 ft 436 kts 218°
2026-04-15 05:38 31.67027 -11.35197 37133 ft 436 kts 218°
2026-04-15 05:38 31.62197 -11.39499 37126 ft 436 kts 218°
2026-04-15 05:39 31.57329 -11.43829 37138 ft 436 kts 218°
2026-04-15 05:39 31.52530 -11.48090 37123 ft 436 kts 218°
2026-04-15 05:40 31.47698 -11.52377 37117 ft 436 kts 218°
2026-04-15 05:40 31.42864 -11.56658 37126 ft 435 kts 218°
2026-04-15 05:41 31.38032 -11.60932 37126 ft 435 kts 218°
2026-04-15 05:41 31.33202 -11.65198 37108 ft 435 kts 218°
2026-04-15 05:42 31.28370 -11.69461 37125 ft 435 kts 217°
2026-04-15 05:42 31.23539 -11.73717 37121 ft 435 kts 217°
2026-04-15 05:43 31.18712 -11.77964 37125 ft 435 kts 217°
2026-04-15 05:43 31.13882 -11.82209 37123 ft 435 kts 217°
2026-04-15 05:44 31.09048 -11.86451 37118 ft 435 kts 217°
2026-04-15 05:44 31.04211 -11.90690 37121 ft 435 kts 217°
2026-04-15 05:45 30.99370 -11.94928 37113 ft 435 kts 217°
2026-04-15 05:45 30.94526 -11.99162 37115 ft 435 kts 217°
2026-04-15 05:46 30.89676 -12.03396 37117 ft 436 kts 217°
2026-04-15 05:46 30.84822 -12.07628 37118 ft 436 kts 217°
2026-04-15 05:47 30.79967 -12.11856 37118 ft 436 kts 217°
2026-04-15 05:47 30.75115 -12.16076 37111 ft 436 kts 217°
2026-04-15 05:48 30.70256 -12.20297 37115 ft 436 kts 217°
2026-04-15 05:48 30.65398 -12.24511 37113 ft 436 kts 217°
2026-04-15 05:49 30.60538 -12.28722 37112 ft 436 kts 216°
2026-04-15 05:49 30.55670 -12.32936 37120 ft 436 kts 216°
2026-04-15 05:50 30.50802 -12.37142 37110 ft 436 kts 216°
2026-04-15 05:51 30.43485 -12.43434 37115 ft 437 kts 216°
2026-04-15 05:51 30.38638 -12.47592 37118 ft 437 kts 216°
2026-04-15 05:52 30.33755 -12.51778 37114 ft 437 kts 216°
2026-04-15 05:52 30.28873 -12.55959 37113 ft 437 kts 216°
2026-04-15 05:53 30.23986 -12.60139 37116 ft 437 kts 216°
2026-04-15 05:53 30.19097 -12.64316 37118 ft 437 kts 216°
2026-04-15 05:54 30.14206 -12.68491 37108 ft 437 kts 216°
2026-04-15 05:54 30.09275 -12.72603 37108 ft 437 kts 212°
2026-04-15 05:55 30.03998 -12.76076 37121 ft 437 kts 208°
2026-04-15 05:55 29.98627 -12.79356 37100 ft 437 kts 208°
2026-04-15 05:56 29.93278 -12.82690 37113 ft 437 kts 208°
2026-04-15 05:56 29.87948 -12.86073 37116 ft 437 kts 208°
2026-04-15 05:57 29.82619 -12.89472 37121 ft 438 kts 208°
2026-04-15 05:57 29.77289 -12.92868 37117 ft 438 kts 208°
2026-04-15 05:58 29.71958 -12.96257 37114 ft 438 kts 208°
2026-04-15 05:58 29.66622 -12.99646 37103 ft 438 kts 208°
2026-04-15 05:59 29.61315 -13.03012 37106 ft 433 kts 208°
2026-04-15 05:59 29.56065 -13.06337 37085 ft 430 kts 208°
2026-04-15 05:59 29.53428 -13.08006 36554 ft 434 kts 208°
2026-04-15 06:00 29.50823 -13.09653 35966 ft 432 kts 208°
2026-04-15 06:00 29.48191 -13.11318 35281 ft 433 kts 208°
2026-04-15 06:00 29.45547 -13.12988 34576 ft 434 kts 208°
2026-04-15 06:00 29.42897 -13.14662 33816 ft 436 kts 207°
2026-04-15 06:01 29.40229 -13.16345 32991 ft 438 kts 207°
2026-04-15 06:01 29.37557 -13.18030 32191 ft 439 kts 207°
2026-04-15 06:01 29.34864 -13.19686 31398 ft 440 kts 205°
2026-04-15 06:01 29.32108 -13.21226 30575 ft 441 kts 204°
2026-04-15 06:02 29.29321 -13.22717 29614 ft 444 kts 204°
2026-04-15 06:02 29.26520 -13.24215 28602 ft 445 kts 204°
2026-04-15 06:02 29.23718 -13.25737 27607 ft 446 kts 204°
2026-04-15 06:02 29.20912 -13.27275 26576 ft 448 kts 204°
2026-04-15 06:03 29.18094 -13.28823 25709 ft 448 kts 204°
2026-04-15 06:03 29.15300 -13.30356 24972 ft 443 kts 204°
2026-04-15 06:03 29.12530 -13.31872 24214 ft 440 kts 204°
2026-04-15 06:03 29.09772 -13.33380 23423 ft 438 kts 204°
2026-04-15 06:04 29.07035 -13.34876 22602 ft 434 kts 204°
2026-04-15 06:04 29.04326 -13.36356 21830 ft 429 kts 204°
2026-04-15 06:04 29.01648 -13.37818 21095 ft 425 kts 205°
2026-04-15 06:04 28.98994 -13.39266 20361 ft 420 kts 205°
2026-04-15 06:05 28.96368 -13.40699 19658 ft 416 kts 205°
2026-04-15 06:05 28.93762 -13.42119 18943 ft 413 kts 206°
2026-04-15 06:05 28.91176 -13.43528 18188 ft 411 kts 206°
2026-04-15 06:05 28.88605 -13.44929 17409 ft 408 kts 206°
2026-04-15 06:06 28.86058 -13.46315 16678 ft 404 kts 206°
2026-04-15 06:06 28.83535 -13.47688 15971 ft 400 kts 206°
2026-04-15 06:06 28.81036 -13.49047 15275 ft 396 kts 206°
2026-04-15 06:06 28.78556 -13.50395 14576 ft 393 kts 206°
2026-04-15 06:07 28.76094 -13.51732 13869 ft 391 kts 206°
2026-04-15 06:07 28.73643 -13.53063 13111 ft 388 kts 206°
2026-04-15 06:07 28.71219 -13.54380 12408 ft 384 kts 205°
2026-04-15 06:07 28.68813 -13.55685 11724 ft 380 kts 205°
2026-04-15 06:08 28.66439 -13.56972 11165 ft 374 kts 205°
2026-04-15 06:08 28.64148 -13.58214 11036 ft 357 kts 205°
2026-04-15 06:08 28.61952 -13.59404 10877 ft 342 kts 205°
2026-04-15 06:08 28.59846 -13.60544 10734 ft 329 kts 205°
2026-04-15 06:09 28.57821 -13.61640 10605 ft 316 kts 204°
2026-04-15 06:09 28.55868 -13.62697 10471 ft 305 kts 204°
2026-04-15 06:09 28.53982 -13.63716 10344 ft 295 kts 204°
2026-04-15 06:09 28.52150 -13.64675 10222 ft 285 kts 202°
2026-04-15 06:10 28.50357 -13.65549 10098 ft 276 kts 202°
2026-04-15 06:10 28.48617 -13.66389 9784 ft 275 kts 202°
2026-04-15 06:10 28.46864 -13.67237 9481 ft 273 kts 200°
2026-04-15 06:10 28.45029 -13.67658 9161 ft 269 kts 179°
2026-04-15 06:11 28.43178 -13.67433 8883 ft 267 kts 171°
2026-04-15 06:11 28.41346 -13.67121 8574 ft 266 kts 171°
2026-04-15 06:11 28.39523 -13.66816 8358 ft 261 kts 171°
2026-04-15 06:11 28.37752 -13.66528 8235 ft 254 kts 171°
2026-04-15 06:12 28.36032 -13.66234 8102 ft 246 kts 167°
2026-04-15 06:12 28.34494 -13.65479 8076 ft 238 kts 150°
2026-04-15 06:12 28.33059 -13.64565 8076 ft 237 kts 151°
2026-04-15 06:12 28.31574 -13.63631 8097 ft 251 kts 152°
2026-04-15 06:13 28.30011 -13.62653 8117 ft 261 kts 152°
2026-04-15 06:13 28.28421 -13.61664 8110 ft 259 kts 152°
2026-04-15 06:13 28.26853 -13.60690 8095 ft 255 kts 152°
2026-04-15 06:13 28.25305 -13.59730 8086 ft 252 kts 152°
2026-04-15 06:14 28.23671 -13.59085 8073 ft 249 kts 173°
2026-04-15 06:14 28.21963 -13.59132 8081 ft 244 kts 185°
2026-04-15 06:14 28.20295 -13.59386 8074 ft 240 kts 187°
2026-04-15 06:14 28.18657 -13.59654 8065 ft 237 kts 187°
2026-04-15 06:15 28.17036 -13.59906 8064 ft 233 kts 186°
2026-04-15 06:15 28.15425 -13.60147 8066 ft 236 kts 186°
2026-04-15 06:15 28.13785 -13.60387 8075 ft 239 kts 186°
2026-04-15 06:15 28.12130 -13.60627 8084 ft 241 kts 186°
2026-04-15 06:16 28.10518 -13.61129 8061 ft 243 kts 208°
2026-04-15 06:16 28.09153 -13.62267 8086 ft 245 kts 219°
2026-04-15 06:16 28.07882 -13.63569 8086 ft 247 kts 220°
2026-04-15 06:16 28.06615 -13.64888 8088 ft 248 kts 220°
2026-04-15 06:17 28.05771 -13.65758 8091 ft 248 kts 220°
2026-04-15 06:17 28.04490 -13.67064 8084 ft 248 kts 220°
2026-04-15 06:17 28.03206 -13.68363 8082 ft 247 kts 220°
2026-04-15 06:17 28.01932 -13.69649 8078 ft 245 kts 219°
2026-04-15 06:18 28.00790 -13.71069 8004 ft 249 kts 239°
2026-04-15 06:18 28.00196 -13.72928 7875 ft 254 kts 252°
2026-04-15 06:18 27.99777 -13.74897 7666 ft 259 kts 254°
2026-04-15 06:18 27.99371 -13.76873 7447 ft 256 kts 254°
2026-04-15 06:19 27.98961 -13.78824 7233 ft 253 kts 254°
2026-04-15 06:19 27.98558 -13.80751 7022 ft 251 kts 258°
2026-04-15 06:19 27.98680 -13.82702 6801 ft 252 kts 290°
2026-04-15 06:19 27.99654 -13.84314 6608 ft 251 kts 321°
2026-04-15 06:20 28.01200 -13.85152 6407 ft 247 kts 351°
2026-04-15 06:20 28.02907 -13.85255 6215 ft 246 kts
2026-04-15 06:20 28.04618 -13.85137 5999 ft 247 kts
2026-04-15 06:20 28.06339 -13.84988 5794 ft 248 kts
2026-04-15 06:21 28.08058 -13.84844 5571 ft 247 kts
2026-04-15 06:21 28.09768 -13.84710 5362 ft 246 kts
2026-04-15 06:21 28.11466 -13.84584 5152 ft 243 kts
2026-04-15 06:21 28.13144 -13.84466 4958 ft 241 kts
2026-04-15 06:22 28.14808 -13.84352 4747 ft 238 kts
2026-04-15 06:22 28.16455 -13.84240 4546 ft 235 kts
2026-04-15 06:22 28.18077 -13.84131 4346 ft 232 kts
2026-04-15 06:22 28.19685 -13.84158 4142 ft 233 kts 348°
2026-04-15 06:23 28.21114 -13.85030 3967 ft 235 kts 325°
2026-04-15 06:23 28.22342 -13.86253 3782 ft 235 kts 321°
2026-04-15 06:23 28.23720 -13.87125 3546 ft 224 kts 356°
2026-04-15 06:23 28.25236 -13.87095 3396 ft 215 kts
2026-04-15 06:24 28.26723 -13.87018 3211 ft 212 kts
2026-04-15 06:24 28.28191 -13.86958 3035 ft 210 kts
2026-04-15 06:24 28.29640 -13.86903 2852 ft 207 kts
2026-04-15 06:24 28.31064 -13.86853 2706 ft 204 kts
2026-04-15 06:25 28.32470 -13.86804 2631 ft 201 kts
2026-04-15 06:25 28.33846 -13.86757 2600 ft 200 kts
2026-04-15 06:25 28.35249 -13.86709 2595 ft 198 kts
2026-04-15 06:25 28.36611 -13.86664 2596 ft 194 kts
2026-04-15 06:26 28.37960 -13.86619 2603 ft 194 kts
2026-04-15 06:26 28.39312 -13.86574 2598 ft 195 kts
2026-04-15 06:26 28.40655 -13.86529 2610 ft 196 kts
2026-04-15 06:26 28.42039 -13.86483 2607 ft 197 kts
2026-04-15 06:27 28.43395 -13.86438 2600 ft 198 kts
2026-04-15 06:27 28.44786 -13.86393 2611 ft 198 kts
2026-04-15 06:27 28.46140 -13.86350 2597 ft 197 kts
2026-04-15 06:27 28.47502 -13.86281 2613 ft 196 kts
2026-04-15 06:28 28.48866 -13.86220 2604 ft 197 kts
2026-04-15 06:28 28.50240 -13.86168 2602 ft 198 kts
2026-04-15 06:28 28.51616 -13.86105 2606 ft 197 kts
2026-04-15 06:28 28.52988 -13.86032 2613 ft 198 kts
2026-04-15 06:29 28.54367 -13.85978 2603 ft 198 kts
2026-04-15 06:29 28.55749 -13.85904 2612 ft 200 kts
2026-04-15 06:29 28.57136 -13.85838 2617 ft 199 kts
2026-04-15 06:29 28.58529 -13.85774 2606 ft 201 kts
2026-04-15 06:30 28.59925 -13.85698 2596 ft 201 kts
2026-04-15 06:30 28.61320 -13.85632 2600 ft 201 kts
2026-04-15 06:30 28.62717 -13.85565 2606 ft 201 kts
2026-04-15 06:30 28.64107 -13.85490 2611 ft 200 kts
2026-04-15 06:31 28.65498 -13.85420 2609 ft 200 kts
2026-04-15 06:31 28.66889 -13.85340 2611 ft 200 kts
2026-04-15 06:31 28.68264 -13.85281 2606 ft 196 kts
2026-04-15 06:31 28.69622 -13.85221 2596 ft 193 kts
2026-04-15 06:32 28.70958 -13.85168 2608 ft 193 kts
2026-04-15 06:32 28.72306 -13.85106 2618 ft 195 kts
2026-04-15 06:32 28.73672 -13.85046 2628 ft 198 kts
2026-04-15 06:32 28.75054 -13.84990 2618 ft 199 kts
2026-04-15 06:33 28.76436 -13.84932 2616 ft 199 kts
2026-04-15 06:33 28.77827 -13.84875 2621 ft 201 kts
2026-04-15 06:33 28.79234 -13.84820 2618 ft 203 kts
2026-04-15 06:33 28.80624 -13.84761 2617 ft 198 kts
2026-04-15 06:34 28.81982 -13.84703 2595 ft 193 kts
2026-04-15 06:34 28.83309 -13.84660 2606 ft 188 kts
2026-04-15 06:34 28.84621 -13.84619 2611 ft 189 kts
2026-04-15 06:34 28.85961 -13.84566 2627 ft 196 kts
2026-04-15 06:35 28.87339 -13.84508 2624 ft 199 kts
2026-04-15 06:35 28.88728 -13.84461 2629 ft 200 kts
2026-04-15 06:35 28.90113 -13.84413 2607 ft 198 kts
2026-04-15 06:35 28.91487 -13.84372 2608 ft 197 kts
2026-04-15 06:36 28.92849 -13.84332 2615 ft 196 kts
2026-04-15 06:36 28.94211 -13.84300 2609 ft 196 kts
2026-04-15 06:36 28.95568 -13.84271 2615 ft 194 kts
2026-04-15 06:36 28.96917 -13.84235 2621 ft 194 kts
2026-04-15 06:37 28.98274 -13.84216 2632 ft 195 kts
2026-04-15 06:37 28.99638 -13.84196 2620 ft 197 kts
2026-04-15 06:37 29.01010 -13.84166 2615 ft 197 kts
2026-04-15 06:37 29.02384 -13.84132 2615 ft 197 kts
2026-04-15 06:38 29.03753 -13.84093 2626 ft 197 kts
2026-04-15 06:38 29.05126 -13.84045 2617 ft 198 kts
2026-04-15 06:38 29.06488 -13.84014 2628 ft 199 kts
2026-04-15 06:38 29.07870 -13.83986 2616 ft 198 kts
2026-04-15 06:39 29.09266 -13.83940 2617 ft 198 kts
2026-04-15 06:39 29.10639 -13.83884 2613 ft 197 kts
2026-04-15 06:39 29.12003 -13.83849 2620 ft 195 kts
2026-04-15 06:39 29.13359 -13.83816 2622 ft 195 kts
2026-04-15 06:40 29.14709 -13.83783 2620 ft 193 kts
2026-04-15 06:40 29.16040 -13.83750 2622 ft 190 kts
2026-04-15 06:40 29.17365 -13.83721 2630 ft 191 kts
2026-04-15 06:40 29.18697 -13.83692 2635 ft 192 kts
2026-04-15 06:41 29.20016 -13.83665 2630 ft 192 kts
2026-04-15 06:41 29.21356 -13.83638 2640 ft 193 kts
2026-04-15 06:41 29.22707 -13.83610 2646 ft 195 kts
2026-04-15 06:41 29.24073 -13.83582 2637 ft 198 kts
2026-04-15 06:42 29.25457 -13.83552 2646 ft 200 kts
2026-04-15 06:42 29.26856 -13.83511 2653 ft 201 kts
2026-04-15 06:42 29.28268 -13.83476 2632 ft 198 kts
2026-04-15 06:42 29.29619 -13.83453 2632 ft 196 kts
2026-04-15 06:43 29.30978 -13.83428 2637 ft 195 kts
2026-04-15 06:43 29.32338 -13.83400 2649 ft 196 kts
2026-04-15 06:43 29.33701 -13.83375 2635 ft 197 kts
2026-04-15 06:43 29.35069 -13.83349 2652 ft 197 kts
2026-04-15 06:44 29.36464 -13.83339 2645 ft 198 kts
2026-04-15 06:44 29.37828 -13.83324 2642 ft 198 kts
2026-04-15 06:44 29.39194 -13.83312 2627 ft 194 kts
2026-04-15 06:44 29.40535 -13.83292 2633 ft 191 kts
2026-04-15 06:45 29.41860 -13.83270 2631 ft 190 kts
2026-04-15 06:45 29.43180 -13.83276 2625 ft 190 kts
2026-04-15 06:45 29.44504 -13.83283 2643 ft 191 kts
2026-04-15 06:45 29.45839 -13.83273 2658 ft 192 kts
2026-04-15 06:46 29.47189 -13.83256 2651 ft 195 kts
2026-04-15 06:46 29.48558 -13.83246 2638 ft 197 kts
2026-04-15 06:46 29.49928 -13.83229 2644 ft 197 kts
2026-04-15 06:46 29.51302 -13.83211 2642 ft 197 kts
2026-04-15 06:47 29.52664 -13.83210 2626 ft 194 kts
2026-04-15 06:47 29.54005 -13.83206 2643 ft 191 kts
2026-04-15 06:47 29.55327 -13.83203 2630 ft 189 kts
2026-04-15 06:47 29.56632 -13.83191 2639 ft 187 kts
2026-04-15 06:48 29.57944 -13.83184 2656 ft 191 kts
2026-04-15 06:48 29.59283 -13.83182 2642 ft 195 kts
2026-04-15 06:48 29.60643 -13.83175 2651 ft 196 kts
2026-04-15 06:48 29.62013 -13.83169 2647 ft 198 kts
2026-04-15 06:49 29.63387 -13.83164 2648 ft 198 kts
2026-04-15 06:49 29.64764 -13.83137 2645 ft 198 kts
2026-04-15 06:49 29.66147 -13.83118 2642 ft 199 kts
2026-04-15 06:50 29.68899 -13.83092 2628 ft 195 kts
2026-04-15 06:50 29.70247 -13.83089 2641 ft 193 kts
2026-04-15 06:50 29.71587 -13.83078 2646 ft 193 kts
2026-04-15 06:50 29.72931 -13.83082 2646 ft 193 kts
2026-04-15 06:51 29.74276 -13.83073 2656 ft 193 kts
2026-04-15 06:51 29.75619 -13.83079 2644 ft 194 kts
2026-04-15 06:51 29.76955 -13.83081 2652 ft 195 kts
2026-04-15 06:51 29.78317 -13.83090 2645 ft 196 kts
2026-04-15 06:52 29.79684 -13.83099 2656 ft 197 kts
2026-04-15 06:52 29.81062 -13.83098 2655 ft 198 kts
2026-04-15 06:52 29.82451 -13.83092 2644 ft 200 kts
2026-04-15 06:52 29.83844 -13.83115 2649 ft 200 kts
2026-04-15 06:53 29.85232 -13.83129 2649 ft 199 kts
2026-04-15 06:53 29.86615 -13.83135 2657 ft 199 kts
2026-04-15 06:53 29.88002 -13.83142 2656 ft 199 kts
2026-04-15 06:53 29.89383 -13.83162 2643 ft 197 kts
2026-04-15 06:54 29.90739 -13.83180 2645 ft 193 kts
2026-04-15 06:54 29.92059 -13.83196 2641 ft 188 kts
2026-04-15 06:54 29.93365 -13.83201 2639 ft 189 kts
2026-04-15 06:54 29.94689 -13.83208 2657 ft 192 kts
2026-04-15 06:55 29.96040 -13.83227 2668 ft 196 kts
2026-04-15 06:55 29.97407 -13.83247 2661 ft 197 kts
2026-04-15 06:55 29.98786 -13.83265 2662 ft 199 kts
2026-04-15 06:55 30.00161 -13.83274 2647 ft 196 kts
2026-04-15 06:56 30.01524 -13.83283 2638 ft 194 kts
2026-04-15 06:56 30.02866 -13.83292 2643 ft 192 kts
2026-04-15 06:56 30.04199 -13.83292 2649 ft 191 kts
2026-04-15 06:56 30.05528 -13.83291 2655 ft 191 kts
2026-04-15 06:57 30.06857 -13.83285 2658 ft 191 kts
2026-04-15 06:57 30.08187 -13.83284 2664 ft 191 kts
2026-04-15 06:57 30.09522 -13.83310 2662 ft 192 kts
2026-04-15 06:57 30.10867 -13.83318 2667 ft 194 kts
2026-04-15 06:58 30.12227 -13.83331 2666 ft 196 kts
2026-04-15 06:58 30.13602 -13.83330 2656 ft 198 kts
2026-04-15 06:58 30.14975 -13.83344 2650 ft 195 kts
2026-04-15 06:58 30.16314 -13.83349 2647 ft 194 kts
2026-04-15 06:59 30.17658 -13.83375 2649 ft 192 kts
2026-04-15 06:59 30.18987 -13.83385 2651 ft 190 kts
2026-04-15 06:59 30.20298 -13.83385 2649 ft 187 kts
2026-04-15 06:59 30.21599 -13.83384 2654 ft 187 kts
2026-04-15 07:00 30.22905 -13.83407 2659 ft 188 kts
2026-04-15 07:00 30.24215 -13.83436 2658 ft 188 kts
2026-04-15 07:00 30.25528 -13.83465 2663 ft 190 kts
2026-04-15 07:00 30.26848 -13.83483 2668 ft 190 kts
2026-04-15 07:01 30.28189 -13.83485 2679 ft 197 kts
2026-04-15 07:01 30.29564 -13.83489 2675 ft 198 kts
2026-04-15 07:01 30.30945 -13.83498 2680 ft 199 kts
2026-04-15 07:01 30.32322 -13.83513 2660 ft 196 kts
2026-04-15 07:02 30.33663 -13.83526 2651 ft 189 kts
2026-04-15 07:02 30.34962 -13.83541 2659 ft 186 kts
2026-04-15 07:02 30.36257 -13.83554 2667 ft 187 kts
2026-04-15 07:02 30.37566 -13.83577 2667 ft 189 kts
2026-04-15 07:03 30.38894 -13.83594 2680 ft 193 kts
2026-04-15 07:03 30.40246 -13.83613 2683 ft 196 kts
2026-04-15 07:03 30.41616 -13.83631 2679 ft 197 kts
2026-04-15 07:03 30.42522 -13.83642 2675 ft 196 kts
2026-04-15 07:04 30.43879 -13.83671 2658 ft 193 kts
2026-04-15 07:04 30.45209 -13.83707 2662 ft 189 kts
2026-04-15 07:04 30.46516 -13.83734 2663 ft 187 kts
2026-04-15 07:04 30.47818 -13.83756 2666 ft 187 kts
2026-04-15 07:05 30.49123 -13.83776 2678 ft 188 kts
2026-04-15 07:05 30.50439 -13.83809 2682 ft 190 kts
2026-04-15 07:05 30.51770 -13.83850 2680 ft 194 kts
2026-04-15 07:05 30.53121 -13.83887 2670 ft 195 kts
2026-04-15 07:06 30.54485 -13.83905 2681 ft 197 kts
2026-04-15 07:06 30.55856 -13.83928 2669 ft 197 kts
2026-04-15 07:06 30.57229 -13.83959 2679 ft 197 kts
2026-04-15 07:06 30.58598 -13.83993 2673 ft 197 kts
2026-04-15 07:07 30.59964 -13.84022 2682 ft 196 kts
2026-04-15 07:07 30.61324 -13.84038 2675 ft 195 kts
2026-04-15 07:07 30.62682 -13.84055 2679 ft 195 kts
2026-04-15 07:07 30.64036 -13.84079 2677 ft 194 kts
2026-04-15 07:08 30.65378 -13.84116 2668 ft 191 kts
2026-04-15 07:08 30.66695 -13.84148 2678 ft 188 kts
2026-04-15 07:08 30.67986 -13.84179 2679 ft 188 kts
2026-04-15 07:08 30.69313 -13.84201 2675 ft 189 kts
2026-04-15 07:09 30.70609 -13.84223 2672 ft 189 kts
2026-04-15 07:09 30.71914 -13.84241 2680 ft 187 kts
2026-04-15 07:09 30.73218 -13.84264 2677 ft 188 kts
2026-04-15 07:09 30.74533 -13.84287 2690 ft 191 kts
2026-04-15 07:10 30.75871 -13.84310 2683 ft 193 kts
2026-04-15 07:10 30.77221 -13.84329 2684 ft 194 kts
2026-04-15 07:10 30.78573 -13.84345 2686 ft 195 kts
2026-04-15 07:10 30.79931 -13.84368 2686 ft 196 kts
2026-04-15 07:11 30.81300 -13.84391 2685 ft 196 kts
2026-04-15 07:11 30.82654 -13.84421 2683 ft 193 kts
2026-04-15 07:11 30.83983 -13.84437 2680 ft 189 kts
2026-04-15 07:11 30.85290 -13.84456 2684 ft 188 kts
2026-04-15 07:12 30.86599 -13.84479 2679 ft 189 kts
2026-04-15 07:12 30.87916 -13.84513 2700 ft 191 kts
2026-04-15 07:12 30.89251 -13.84540 2697 ft 193 kts
2026-04-15 07:12 30.90600 -13.84559 2688 ft 194 kts
2026-04-15 07:13 30.91955 -13.84579 2685 ft 195 kts
2026-04-15 07:13 30.93304 -13.84595 2678 ft 192 kts
2026-04-15 07:13 30.94628 -13.84619 2682 ft 188 kts
2026-04-15 07:13 30.95932 -13.84638 2685 ft 187 kts
2026-04-15 07:14 30.97232 -13.84663 2694 ft 187 kts
2026-04-15 07:14 30.98542 -13.84686 2689 ft 188 kts
2026-04-15 07:14 30.99858 -13.84711 2697 ft 190 kts
2026-04-15 07:14 31.01189 -13.84734 2710 ft 192 kts
2026-04-15 07:15 31.02527 -13.84755 2695 ft 193 kts
2026-04-15 07:15 31.03873 -13.84771 2702 ft 193 kts
2026-04-15 07:15 31.05218 -13.84790 2701 ft 193 kts
2026-04-15 07:15 31.06568 -13.84797 2691 ft 194 kts
2026-04-15 07:16 31.07908 -13.84807 2685 ft 191 kts
2026-04-15 07:16 31.09222 -13.84833 2685 ft 186 kts
2026-04-15 07:16 31.10509 -13.84849 2697 ft 185 kts
2026-04-15 07:16 31.11792 -13.84871 2713 ft 185 kts
2026-04-15 07:17 31.13091 -13.84884 2709 ft 189 kts
2026-04-15 07:17 31.14413 -13.84890 2708 ft 191 kts
2026-04-15 07:17 31.15751 -13.84904 2693 ft 194 kts
2026-04-15 07:17 31.17095 -13.84920 2701 ft 194 kts
2026-04-15 07:18 31.18437 -13.84942 2693 ft 193 kts
2026-04-15 07:18 31.19766 -13.84950 2698 ft 190 kts
2026-04-15 07:18 31.21086 -13.84959 2694 ft 189 kts
2026-04-15 07:18 31.22403 -13.84968 2694 ft 189 kts
2026-04-15 07:19 31.23699 -13.84984 2697 ft 188 kts
2026-04-15 07:19 31.25010 -13.85008 2696 ft 188 kts
2026-04-15 07:19 31.26324 -13.85032 2718 ft 190 kts
2026-04-15 07:19 31.27651 -13.85055 2716 ft 192 kts
2026-04-15 07:20 31.28999 -13.85066 2712 ft 194 kts
2026-04-15 07:20 31.30359 -13.85076 2715 ft 195 kts
2026-04-15 07:20 31.31714 -13.85095 2698 ft 194 kts
2026-04-15 07:20 31.33054 -13.85110 2704 ft 191 kts
2026-04-15 07:21 31.34375 -13.85128 2705 ft 189 kts
2026-04-15 07:21 31.35690 -13.85145 2695 ft 188 kts
2026-04-15 07:21 31.36998 -13.85158 2706 ft 187 kts
2026-04-15 07:21 31.38303 -13.85175 2701 ft 188 kts
2026-04-15 07:22 31.39609 -13.85191 2711 ft 189 kts
2026-04-15 07:22 31.40928 -13.85211 2721 ft 192 kts
2026-04-15 07:22 31.42275 -13.85232 2722 ft 195 kts
2026-04-15 07:22 31.43635 -13.85246 2724 ft 197 kts
2026-04-15 07:23 31.45005 -13.85257 2721 ft 198 kts
2026-04-15 07:23 31.46364 -13.85268 2711 ft 193 kts
2026-04-15 07:23 31.47691 -13.85286 2712 ft 189 kts
2026-04-15 07:23 31.48997 -13.85308 2700 ft 187 kts
2026-04-15 07:24 31.50304 -13.85327 2715 ft 189 kts
2026-04-15 07:24 31.51626 -13.85351 2719 ft 190 kts
2026-04-15 07:24 31.52962 -13.85370 2724 ft 193 kts
2026-04-15 07:24 31.54315 -13.85388 2717 ft 194 kts
2026-04-15 07:25 31.55654 -13.85406 2710 ft 192 kts
2026-04-15 07:25 31.56968 -13.85390 2712 ft 190 kts
2026-04-15 07:25 31.58285 -13.85387 2722 ft 190 kts
2026-04-15 07:25 31.59613 -13.85405 2720 ft 191 kts
2026-04-15 07:26 31.60947 -13.85411 2720 ft 192 kts
2026-04-15 07:26 31.62294 -13.85429 2725 ft 193 kts
2026-04-15 07:26 31.63638 -13.85432 2721 ft 193 kts
2026-04-15 07:26 31.64987 -13.85441 2718 ft 194 kts
2026-04-15 07:27 31.66340 -13.85449 2718 ft 194 kts
2026-04-15 07:27 31.67691 -13.85461 2715 ft 194 kts
2026-04-15 07:27 31.69041 -13.85472 2730 ft 194 kts
2026-04-15 07:27 31.70388 -13.85482 2725 ft 194 kts
2026-04-15 07:28 31.71717 -13.85495 2721 ft 194 kts
2026-04-15 07:28 31.73062 -13.85505 2718 ft 193 kts
2026-04-15 07:28 31.74404 -13.85516 2723 ft 193 kts
2026-04-15 07:28 31.75742 -13.85527 2726 ft 192 kts
2026-04-15 07:29 31.77081 -13.85528 2727 ft 192 kts
2026-04-15 07:29 31.78414 -13.85519 2728 ft 191 kts
2026-04-15 07:29 31.79746 -13.85523 2719 ft 191 kts
2026-04-15 07:29 31.81075 -13.85527 2727 ft 190 kts
2026-04-15 07:30 31.82402 -13.85542 2720 ft 190 kts
2026-04-15 07:30 31.83718 -13.85539 2732 ft 189 kts
2026-04-15 07:30 31.85034 -13.85548 2736 ft 189 kts
2026-04-15 07:30 31.86352 -13.85547 2731 ft 190 kts
2026-04-15 07:31 31.87674 -13.85555 2723 ft 190 kts
2026-04-15 07:31 31.88987 -13.85558 2726 ft 189 kts
2026-04-15 07:31 31.90302 -13.85568 2734 ft 190 kts
2026-04-15 07:31 31.91625 -13.85569 2744 ft 192 kts
2026-04-15 07:32 31.92970 -13.85576 2737 ft 195 kts
2026-04-15 07:32 31.94327 -13.85589 2734 ft 196 kts
2026-04-15 07:32 31.95688 -13.85597 2726 ft 196 kts
2026-04-15 07:32 31.97049 -13.85592 2737 ft 196 kts
2026-04-15 07:33 31.98413 -13.85583 2722 ft 196 kts
2026-04-15 07:33 31.99769 -13.85588 2734 ft 194 kts
2026-04-15 07:33 32.01109 -13.85603 2728 ft 192 kts
2026-04-15 07:33 32.02441 -13.85615 2731 ft 191 kts
2026-04-15 07:34 32.03771 -13.85627 2740 ft 190 kts
2026-04-15 07:34 32.05098 -13.85626 2731 ft 191 kts
2026-04-15 07:34 32.06421 -13.85640 2740 ft 189 kts
2026-04-15 07:34 32.07737 -13.85655 2734 ft 188 kts
2026-04-15 07:35 32.09047 -13.85666 2748 ft 188 kts
2026-04-15 07:35 32.10360 -13.85660 2740 ft 189 kts
2026-04-15 07:35 32.11664 -13.85651 2747 ft 190 kts
2026-04-15 07:35 32.12990 -13.85644 2734 ft 191 kts
2026-04-15 07:36 32.14311 -13.85659 2750 ft 190 kts
2026-04-15 07:36 32.15630 -13.85666 2744 ft 190 kts
2026-04-15 07:36 32.16952 -13.85673 2753 ft 190 kts
2026-04-15 07:36 32.18275 -13.85665 2745 ft 191 kts
2026-04-15 07:37 32.19601 -13.85653 2740 ft 191 kts
2026-04-15 07:37 32.20926 -13.85634 2741 ft 190 kts
2026-04-15 07:37 32.22250 -13.85624 2750 ft 190 kts
2026-04-15 07:37 32.23576 -13.85626 2750 ft 191 kts
2026-04-15 07:38 32.24912 -13.85632 2749 ft 192 kts
2026-04-15 07:38 32.26247 -13.85618 2737 ft 192 kts
2026-04-15 07:38 32.27582 -13.85609 2745 ft 191 kts
2026-04-15 07:38 32.28912 -13.85602 2743 ft 191 kts
2026-04-15 07:39 32.30241 -13.85595 2746 ft 191 kts
2026-04-15 07:39 32.31570 -13.85587 2761 ft 191 kts
2026-04-15 07:39 32.32901 -13.85571 2757 ft 192 kts
2026-04-15 07:39 32.34239 -13.85555 2748 ft 192 kts
2026-04-15 07:40 32.35573 -13.85534 2741 ft 191 kts
2026-04-15 07:40 32.36893 -13.85516 2750 ft 189 kts
2026-04-15 07:40 32.38204 -13.85500 2752 ft 188 kts
2026-04-15 07:40 32.39507 -13.85464 2756 ft 188 kts
2026-04-15 07:41 32.40813 -13.85424 2756 ft 188 kts
2026-04-15 07:41 32.42127 -13.85404 2760 ft 190 kts
2026-04-15 07:41 32.43451 -13.85389 2751 ft 191 kts
2026-04-15 07:41 32.44785 -13.85364 2753 ft 192 kts
2026-04-15 07:42 32.46126 -13.85325 2765 ft 194 kts
2026-04-15 07:42 32.47483 -13.85285 2749 ft 196 kts
2026-04-15 07:42 32.48838 -13.85254 2754 ft 195 kts
2026-04-15 07:42 32.50186 -13.85229 2744 ft 192 kts
2026-04-15 07:43 32.51506 -13.85197 2738 ft 188 kts
2026-04-15 07:43 32.52809 -13.85173 2750 ft 187 kts
2026-04-15 07:43 32.54113 -13.85153 2765 ft 188 kts
2026-04-15 07:43 32.55433 -13.85127 2781 ft 191 kts
2026-04-15 07:44 32.56769 -13.85099 2751 ft 193 kts
2026-04-15 07:44 32.58113 -13.85085 2768 ft 193 kts
2026-04-15 07:44 32.59464 -13.85075 2765 ft 195 kts
2026-04-15 07:44 32.60830 -13.85059 2767 ft 196 kts
2026-04-15 07:45 32.62179 -13.85025 2755 ft 191 kts
2026-04-15 07:45 32.63490 -13.84991 2748 ft 187 kts
2026-04-15 07:45 32.64788 -13.84973 2781 ft 187 kts
2026-04-15 07:45 32.66097 -13.84952 2779 ft 190 kts
2026-04-15 07:46 32.67426 -13.84925 2766 ft 192 kts
2026-04-15 07:46 32.68765 -13.84892 2755 ft 193 kts
2026-04-15 07:46 32.70093 -13.84866 2763 ft 193 kts
2026-04-15 07:46 32.71453 -13.84839 2766 ft 193 kts
2026-04-15 07:47 32.72799 -13.84812 2772 ft 194 kts
2026-04-15 07:47 32.74132 -13.84781 2756 ft 194 kts
2026-04-15 07:47 32.75484 -13.84750 2772 ft 194 kts
2026-04-15 07:47 32.76832 -13.84731 2772 ft 193 kts
2026-04-15 07:48 32.78176 -13.84711 2775 ft 193 kts
2026-04-15 07:48 32.79512 -13.84694 2774 ft 191 kts
2026-04-15 07:48 32.80842 -13.84660 2768 ft 191 kts
2026-04-15 07:48 32.82167 -13.84628 2782 ft 190 kts
2026-04-15 07:49 32.83492 -13.84594 2757 ft 190 kts
2026-04-15 07:49 32.84806 -13.84571 2766 ft 188 kts
2026-04-15 07:49 32.86116 -13.84541 2766 ft 188 kts
2026-04-15 07:49 32.87424 -13.84504 2772 ft 189 kts
2026-04-15 07:50 32.88746 -13.84472 2772 ft 190 kts
2026-04-15 07:50 32.90071 -13.84432 2774 ft 192 kts
2026-04-15 07:50 32.91409 -13.84378 2777 ft 193 kts
2026-04-15 07:50 32.92761 -13.84345 2765 ft 195 kts
2026-04-15 07:51 32.94120 -13.84310 2777 ft 196 kts
2026-04-15 07:51 32.95483 -13.84265 2784 ft 196 kts
2026-04-15 07:51 32.96843 -13.84207 2768 ft 194 kts
2026-04-15 07:51 32.98184 -13.84152 2768 ft 191 kts
2026-04-15 07:52 32.99507 -13.84119 2765 ft 189 kts
2026-04-15 07:52 33.00827 -13.84083 2772 ft 190 kts
2026-04-15 07:52 33.02149 -13.84040 2779 ft 190 kts
2026-04-15 07:52 33.03023 -13.83991 2780 ft 190 kts
2026-04-15 07:53 33.04344 -13.83947 2776 ft 190 kts
2026-04-15 07:53 33.05670 -13.83911 2778 ft 191 kts
2026-04-15 07:53 33.07001 -13.83878 2780 ft 192 kts
2026-04-15 07:53 33.08340 -13.83837 2775 ft 192 kts
2026-04-15 07:54 33.09678 -13.83799 2779 ft 193 kts
2026-04-15 07:54 33.11021 -13.83758 2780 ft 193 kts
2026-04-15 07:54 33.12362 -13.83708 2777 ft 192 kts
2026-04-15 07:54 33.13685 -13.83662 2789 ft 189 kts
2026-04-15 07:55 33.14996 -13.83623 2776 ft 188 kts
2026-04-15 07:55 33.16300 -13.83579 2762 ft 188 kts
2026-04-15 07:55 33.18930 -13.83470 2777 ft 191 kts
2026-04-15 07:56 33.20259 -13.83427 2786 ft 191 kts
2026-04-15 07:56 33.21594 -13.83383 2776 ft 193 kts
2026-04-15 07:56 33.22936 -13.83323 2781 ft 194 kts
2026-04-15 07:56 33.24284 -13.83272 2796 ft 195 kts
2026-04-15 07:57 33.25637 -13.83229 2784 ft 194 kts
2026-04-15 07:57 33.26979 -13.83184 2785 ft 192 kts
2026-04-15 07:57 33.28314 -13.83136 2789 ft 193 kts
2026-04-15 07:57 33.29658 -13.83085 2789 ft 194 kts
2026-04-15 07:58 33.31007 -13.83040 2786 ft 193 kts
2026-04-15 07:58 33.32331 -13.82975 2744 ft 187 kts 11°
2026-04-15 07:58 33.33533 -13.82355 2039 ft 204 kts 45°
2026-04-15 07:58 33.34001 -13.80580 495 ft 269 kts 99°
2026-04-15 07:59 33.33783 -13.79927 32 ft 0 kts 121°